CW0927 Weather Reports


Display with metric or nautical units.
time (UTC)temp
F
wind
direction
speed
MPH
gust
MPH
rain 1hr
in
rain 24hr
in
rain mn
in
humidity
%
barometer
mb
20260906200831 95 145 1.0 10.0 0.00 0.00 0.00 60 1011.7
20260906200333 95 236 3.0 10.0 0.00 0.00 0.00 61 1011.7
20260906195831 95 350 1.0 5.0 0.00 0.00 0.00 63 1011.7
20260906195332 95 268 2.0 4.0 0.00 0.00 0.00 63 1011.9
20260906194833 94 279 1.0 4.0 0.00 0.00 0.00 62 1012.0
20260906194335 95 319 1.0 3.0 0.00 0.00 0.00 62 1012.1
20260906193838 95 261 0.0 3.0 0.00 0.00 0.00 61 1012.1
20260906193332 95 284 1.0 7.0 0.00 0.00 0.00 60 1012.2
20260906192832 95 308 3.0 8.0 0.00 0.00 0.00 60 1012.2
20260906192336 96 279 2.0 8.0 0.00 0.00 0.00 61 1012.2
20260906191837 96 340 2.0 6.0 0.00 0.00 0.00 59 1012.3
20260906191336 95 314 2.0 9.0 0.00 0.00 0.00 60 1012.3
20260906190906 95 251 5.0 9.0 0.00 0.00 0.00 61 1012.4
20260906190345 95 204 3.0 7.0 0.00 0.00 0.00 61 1012.5
20260906185844 94 281 1.0 9.0 0.00 0.00 0.00 65 1012.7
20260906185346 94 55 2.0 9.0 0.00 0.00 0.00 62 1012.8
20260906184847 93 235 2.0 7.0 0.00 0.00 0.00 63 1012.9
20260906184352 93 296 1.0 5.0 0.00 0.00 0.00 63 1013.0
20260906183835 93 311 2.0 6.0 0.00 0.00 0.00 62 1013.1
20260906183336 94 310 3.0 8.0 0.00 0.00 0.00 62 1013.1
20260906182838 94 263 3.0 8.0 0.00 0.00 0.00 62 1013.3
20260906182322 94 249 1.0 4.0 0.00 0.00 0.00 65 1013.3
20260906181832 93 185 0.0 8.0 0.00 0.00 0.00 65 1013.3
20260906181333 93 270 5.0 8.0 0.00 0.00 0.00 64 1013.4
20260906180835 94 254 3.0 6.0 0.00 0.00 0.00 66 1013.4
20260906180405 93 96 1.0 7.0 0.00 0.00 0.00 67 1013.5
20260906175844 93 257 3.0 10.0 0.00 0.00 0.00 64 1013.6
20260906175346 94 247 5.0 10.0 0.00 0.00 0.00 64 1013.5
20260906174848 93 166 2.0 7.0 0.00 0.00 0.00 65 1013.5
20260906174358 94 189 2.0 8.0 0.00 0.00 0.00 65 1013.5
20260906173834 94 288 4.0 8.0 0.00 0.00 0.00 65 1013.6
20260906173345 93 360 1.0 8.0 0.00 0.00 0.00 66 1013.6
20260906172845 93 246 2.0 9.0 0.00 0.00 0.00 66 1013.7
20260906172347 93 264 5.0 9.0 0.00 0.00 0.00 65 1013.8
20260906171850 93 250 1.0 10.0 0.00 0.00 0.00 65 1013.8
20260906171352 93 278 3.0 10.0 0.00 0.00 0.00 65 1013.8
20260906170834 93 321 3.0 7.0 0.00 0.00 0.00 65 1013.8
20260906170336 93 304 1.0 5.0 0.00 0.00 0.00 68 1013.9
20260906165835 92 303 2.0 10.0 0.00 0.00 0.00 67 1014.0
20260906165337 92 331 4.0 10.0 0.00 0.00 0.00 69 1014.0
20260906164840 92 235 3.0 9.0 0.00 0.00 0.00 70 1014.0
20260906164406 92 248 4.0 8.0 0.00 0.00 0.00 69 1014.3
20260906163849 92 238 1.0 8.0 0.00 0.00 0.00 67 1014.3
20260906163331 92 224 4.0 8.0 0.00 0.00 0.00 67 1014.4
20260906162839 92 281 2.0 8.0 0.00 0.00 0.00 69 1014.5
20260906162337 91 249 2.0 7.0 0.00 0.00 0.00 69 1014.4
20260906161838 91 308 2.0 6.0 0.00 0.00 0.00 69 1014.5
20260906161407 90 326 1.0 5.0 0.00 0.00 0.00 69 1014.6
20260906160824 90 235 2.0 8.0 0.00 0.00 0.00 70 1014.7
20260906160327 90 17 3.0 8.0 0.00 0.00 0.00 70 1014.6
20260906155828 89 233 2.0 5.0 0.00 0.00 0.00 72 1014.6
20260906155330 89 265 1.0 9.0 0.00 0.00 0.00 73 1014.7
20260906154828 89 288 3.0 9.0 0.00 0.00 0.00 72 1014.7
20260906154330 89 196 4.0 9.0 0.00 0.00 0.00 74 1014.7
20260906153830 88 246 1.0 12.0 0.00 0.00 0.00 76 1014.8
20260906153340 88 254 3.0 9.0 0.00 0.00 0.00 76 1014.8
20260906152839 88 254 1.0 8.0 0.00 0.00 0.00 76 1014.9
20260906152344 88 267 3.0 8.0 0.00 0.00 0.00 76 1014.9
20260906151844 87 346 1.0 4.0 0.00 0.00 0.00 77 1015.0
20260906151326 87 252 1.0 7.0 0.00 0.00 0.00 77 1015.0
20260906150829 87 240 2.0 8.0 0.00 0.00 0.00 77 1015.0
20260906150333 87 238 2.0 9.0 0.00 0.00 0.00 77 1015.1
20260906145833 87 251 3.0 7.0 0.00 0.00 0.00 78 1015.1
20260906145336 87 257 1.0 7.0 0.00 0.00 0.00 78 1015.1
20260906144831 87 317 3.0 7.0 0.00 0.00 0.00 78 1015.0
20260906144341 86 331 1.0 8.0 0.00 0.00 0.00 79 1014.9
20260906143843 86 226 3.0 8.0 0.00 0.00 0.00 79 1015.1
20260906143347 86 272 3.0 9.0 0.00 0.00 0.00 80 1015.0
20260906142853 86 269 3.0 9.0 0.00 0.00 0.00 81 1015.1
20260906142331 85 246 1.0 5.0 0.00 0.00 0.00 83 1014.9
20260906141834 85 259 1.0 5.0 0.00 0.00 0.00 83 1015.0
20260906141336 85 285 1.0 5.0 0.00 0.00 0.00 83 1015.0
20260906140839 84 244 2.0 4.0 0.00 0.00 0.00 84 1015.0
20260906140344 84 258 2.0 4.0 0.00 0.00 0.00 84 1015.0
20260906135846 84 339 1.0 4.0 0.00 0.00 0.00 86 1015.0
20260906135344 84 276 0.0 5.0 0.00 0.00 0.00 86 1015.0
20260906134847 83 229 2.0 7.0 0.00 0.00 0.00 86 1015.1
20260906134330 83 246 2.0 7.0 0.00 0.00 0.00 87 1015.1
20260906133832 82 262 3.0 6.0 0.00 0.00 0.00 88 1015.2
20260906133334 82 245 3.0 5.0 0.00 0.00 0.00 88 1015.1
20260906132842 82 240 1.0 3.0 0.00 0.00 0.00 89 1015.1
20260906132346 81 258 2.0 3.0 0.00 0.00 0.00 90 1015.2
20260906131850 81 254 0.0 3.0 0.00 0.00 0.00 91 1015.4
20260906131352 81 264 0.0 3.0 0.00 0.00 0.00 91 1015.3
20260906130832 81 251 1.0 3.0 0.00 0.00 0.00 92 1015.3
20260906130334 80 252 0.0 3.0 0.00 0.00 0.00 92 1015.3
20260906125834 80 247 0.0 3.0 0.00 0.00 0.00 93 1015.3
20260906125331 80 271 1.0 3.0 0.00 0.00 0.00 93 1015.3
20260906124832 79 241 0.0 2.0 0.00 0.00 0.00 93 1015.3
20260906124335 79 275 0.0 2.0 0.00 0.00 0.00 94 1015.3
20260906123837 79 283 0.0 0.0 0.00 0.00 0.00 93 1015.3
20260906123341 79 196 0.0 0.0 0.00 0.00 0.00 93 1015.3
20260906122840 79 196 0.0 0.0 0.00 0.00 0.00 93 1015.2
20260906122323 78 196 0.0 1.0 0.00 0.00 0.00 93 1015.1
20260906121824 78 196 0.0 1.0 0.00 0.00 0.00 93 1015.0
20260906121325 78 196 0.0 0.0 0.00 0.00 0.00 94 1015.0
20260906120827 78 196 0.0 0.0 0.00 0.00 0.00 94 1015.0
20260906120331 78 196 0.0 0.0 0.00 0.00 0.00 94 1015.0
20260906115834 78 196 0.0 0.0 0.00 0.00 0.00 94 1015.0
20260906115339 78 196 0.0 0.0 0.00 0.00 0.00 94 1014.9
20260906114843 77 196 0.0 0.0 0.00 0.00 0.00 94 1014.8
20260906114341 76 196 0.0 0.0 0.00 0.00 0.00 93 1014.8
20260906113845 76 196 0.0 0.0 0.00 0.00 0.00 93 1014.9
20260906113349 76 196 0.0 0.0 0.00 0.00 0.00 93 1014.9
20260906112852 76 196 0.0 0.0 0.00 0.00 0.00 92 1014.8
20260906112403 76 196 0.0 0.0 0.00 0.00 0.00 92 1014.7
20260906111825 76 196 0.0 0.0 0.00 0.00 0.00 92 1014.6
20260906111330 76 196 0.0 0.0 0.00 0.00 0.00 92 1014.6
20260906110833 76 196 0.0 0.0 0.00 0.00 0.00 92 1014.5
20260906110339 76 196 0.0 0.0 0.00 0.00 0.00 92 1014.4
20260906105823 76 196 0.0 0.0 0.00 0.01 0.00 92 1014.3
20260906105325 76 196 0.0 0.0 0.00 0.01 0.00 92 1014.3
20260906104829 76 196 0.0 0.0 0.00 0.01 0.00 92 1014.2
20260906104334 76 196 0.0 0.0 0.00 0.01 0.00 92 1014.1
20260906103838 76 196 0.0 0.0 0.00 0.01 0.00 91 1014.0
20260906103339 76 196 0.0 0.0 0.00 0.01 0.00 91 1013.9
20260906102839 76 196 0.0 0.0 0.00 0.01 0.00 91 1013.9
20260906102348 76 196 0.0 0.0 0.00 0.01 0.00 91 1013.9
20260906101849 76 196 0.0 0.0 0.00 0.01 0.00 91 1013.7
20260906101350 76 196 0.0 0.0 0.00 0.01 0.00 91 1013.6
20260906100839 77 196 0.0 0.0 0.00 0.01 0.00 91 1013.7
20260906100341 77 196 0.0 0.0 0.00 0.01 0.00 91 1013.7
20260906095840 77 196 0.0 0.0 0.00 0.01 0.00 91 1013.7
20260906095322 77 196 0.0 0.0 0.00 0.01 0.00 91 1013.5
20260906094824 77 196 0.0 0.0 0.00 0.01 0.00 91 1013.5
20260906094326 77 196 0.0 0.0 0.00 0.01 0.00 91 1013.5
20260906093828 77 196 0.0 0.0 0.00 0.01 0.00 91 1013.5
20260906093328 77 196 0.0 0.0 0.00 0.01 0.00 91 1013.5
20260906092828 77 196 0.0 0.0 0.00 0.01 0.00 91 1013.3
20260906092331 77 196 0.0 0.0 0.00 0.01 0.00 91 1013.3
20260906091832 77 196 0.0 0.0 0.00 0.01 0.00 91 1013.3
20260906091335 77 196 0.0 0.0 0.00 0.01 0.00 91 1013.2
20260906090837 77 196 0.0 0.0 0.00 0.01 0.00 91 1013.2
20260906090340 77 196 0.0 0.0 0.00 0.01 0.00 91 1013.2
20260906085841 77 196 0.0 0.0 0.00 0.01 0.00 91 1013.2
20260906085322 78 196 0.0 1.0 0.00 0.01 0.00 91 1013.2
20260906084825 78 196 0.0 1.0 0.00 0.01 0.00 91 1013.0
20260906084356 78 196 0.0 1.0 0.00 0.01 0.00 91 1013.0
20260906083845 78 196 0.0 1.0 0.00 0.01 0.00 90 1013.0
20260906083345 78 196 0.0 0.0 0.00 0.01 0.00 90 1013.0
20260906082848 78 196 0.0 0.0 0.00 0.01 0.00 90 1013.1
20260906082330 78 161 0.0 0.0 0.00 0.01 0.00 90 1013.1
20260906081902 78 161 0.0 0.0 0.00 0.01 0.00 90 1013.1
20260906081324 78 161 0.0 1.0 0.00 0.01 0.00 90 1013.0
20260906080855 78 161 0.0 1.0 0.00 0.01 0.00 90 1013.0
20260906080339 78 161 0.0 2.0 0.00 0.01 0.00 90 1012.9
20260906075840 78 161 0.0 2.0 0.00 0.02 0.00 90 1012.9
20260906075342 78 194 0.0 0.0 0.00 0.02 0.00 90 1012.9
20260906074845 78 194 0.0 0.0 0.00 0.02 0.00 89 1013.0
20260906074326 78 194 0.0 0.0 0.00 0.02 0.00 89 1013.0
20260906073829 78 194 0.0 0.0 0.00 0.02 0.00 89 1013.0
20260906073327 78 194 0.0 0.0 0.00 0.02 0.00 89 1013.2
20260906072828 78 194 0.0 0.0 0.00 0.02 0.00 89 1013.3
20260906072330 78 194 0.0 0.0 0.00 0.02 0.00 89 1013.3
20260906071832 78 194 0.0 0.0 0.00 0.02 0.00 89 1013.3
20260906071334 78 194 0.0 0.0 0.00 0.02 0.00 89 1013.3
20260906070843 78 194 0.0 0.0 0.00 0.02 0.00 89 1013.4
20260906070346 79 194 0.0 1.0 0.00 0.02 0.00 89 1013.3
20260906065846 79 194 0.0 1.0 0.00 0.02 0.00 89 1013.3
20260906065328 79 196 0.0 0.0 0.00 0.02 0.00 89 1013.3
20260906064829 79 196 0.0 1.0 0.00 0.02 0.00 89 1013.5
20260906064331 79 196 0.0 1.0 0.00 0.02 0.00 89 1013.6
20260906063831 79 196 0.0 2.0 0.00 0.02 0.00 89 1013.7
20260906063402 79 196 0.0 2.0 0.00 0.02 0.00 89 1013.7
20260906062840 79 243 0.0 1.0 0.00 0.02 0.00 89 1013.8
20260906062340 79 211 0.0 1.0 0.00 0.02 0.00 88 1013.9
20260906061911 79 188 0.0 1.0 0.00 0.02 0.00 88 1013.9
20260906061332 79 190 0.0 1.0 0.00 0.02 0.00 88 1014.0
20260906060833 79 199 0.0 1.0 0.00 0.02 0.00 88 1014.1
20260906060338 79 199 0.0 1.0 0.00 0.02 0.00 88 1014.0
20260906055836 79 213 0.0 1.0 0.00 0.02 0.00 88 1014.2
20260906055339 79 208 0.0 1.0 0.00 0.02 0.00 88 1014.2
20260906054842 79 224 0.0 3.0 0.00 0.02 0.00 87 1014.3
20260906054408 80 224 0.0 3.0 0.00 0.02 0.00 87 1014.2
20260906053850 80 213 0.0 1.0 0.00 0.02 0.00 87 1014.2
20260906053331 80 213 0.0 1.0 0.00 0.02 0.00 87 1014.4
20260906052900 80 232 0.0 1.0 0.00 0.02 0.00 87 1014.4
20260906052341 80 229 0.0 1.0 0.00 0.02 0.00 87 1014.4
20260906051823 80 229 0.0 1.0 0.00 0.02 0.00 87 1014.6
20260906051325 80 207 0.0 1.0 0.00 0.02 0.00 86 1014.7
20260906050827 80 259 0.0 1.0 0.00 0.02 0.00 86 1014.7
20260906050329 80 189 0.0 2.0 0.00 0.02 0.00 86 1014.7
20260906045830 80 213 0.0 2.0 0.00 0.02 0.00 86 1014.8
20260906045332 81 242 0.0 1.0 0.00 0.02 0.00 85 1014.8
20260906044830 81 236 0.0 1.0 0.00 0.02 0.00 85 1014.9
20260906044400 81 174 0.0 1.0 0.00 0.02 0.00 85 1014.9
20260906043909 81 189 0.0 1.0 0.00 0.02 0.00 85 1014.9
20260906043350 81 189 0.0 3.0 0.00 0.02 0.00 85 1014.9
20260906042830 81 166 0.0 2.0 0.00 0.02 0.00 84 1014.9
20260906042330 81 185 0.0 3.0 0.00 0.02 0.00 84 1014.9
20260906041830 81 302 0.0 3.0 0.00 0.02 0.00 84 1014.9
20260906041340 81 162 0.0 3.0 0.00 0.02 0.00 83 1014.9
20260906040823 81 146 0.0 7.0 0.00 0.02 0.00 83 1015.0
20260906040355 81 194 1.0 7.0 0.00 0.02 0.00 83 1015.0
20260906035830 81 229 2.0 8.0 0.00 0.02 0.02 82 1015.1
20260906035333 81 153 2.0 8.0 0.00 0.02 0.02 82 1015.0
20260906034838 81 126 2.0 6.0 0.00 0.02 0.02 82 1015.1
20260906034322 82 188 1.0 2.0 0.00 0.02 0.02 82 1015.1
20260906033826 82 203 0.0 2.0 0.00 0.02 0.02 81 1015.1
20260906033331 82 180 0.0 2.0 0.00 0.02 0.02 81 1015.1
20260906032840 82 202 0.0 4.0 0.00 0.02 0.02 81 1015.1
20260906032411 82 190 0.0 6.0 0.00 0.02 0.02 81 1015.0
20260906031854 82 144 0.0 3.0 0.00 0.02 0.02 81 1015.0
20260906031337 82 190 1.0 3.0 0.00 0.02 0.02 81 1015.0
20260906030841 82 169 1.0 6.0 0.00 0.02 0.02 81 1015.0
20260906030346 82 159 1.0 6.0 0.00 0.02 0.02 82 1015.0
20260906025842 82 166 1.0 3.0 0.00 0.02 0.02 82 1015.0
20260906025346 82 171 1.0 2.0 0.00 0.02 0.02 82 1015.1
20260906024851 82 158 0.0 4.0 0.00 0.02 0.02 82 1015.1
20260906024333 81 156 1.0 4.0 0.00 0.02 0.02 82 1015.0
20260906023837 82 132 1.0 2.0 0.00 0.02 0.02 82 1015.0
20260906023342 82 161 0.0 5.0 0.00 0.02 0.02 82 1015.0
20260906022823 82 126 1.0 5.0 0.00 0.02 0.02 82 1014.9
20260906022323 82 178 0.0 2.0 0.00 0.02 0.02 82 1014.8
20260906021823 82 180 1.0 2.0 0.00 0.02 0.02 82 1014.9
20260906021323 82 155 1.0 2.0 0.00 0.02 0.02 82 1014.8
20260906020823 82 186 0.0 1.0 0.00 0.02 0.02 82 1014.9
20260906020351 82 186 0.0 1.0 0.00 0.02 0.02 82 1014.9
20260906015850 82 186 0.0 2.0 0.00 0.02 0.02 82 1015.0
20260906015324 82 159 0.0 3.0 0.00 0.02 0.02 81 1014.9
20260906014824 82 159 1.0 3.0 0.00 0.02 0.02 81 1015.0
20260906014325 82 167 0.0 5.0 0.00 0.02 0.02 81 1015.0
20260906013853 82 143 1.0 5.0 0.00 0.02 0.02 81 1014.8
20260906013332 82 173 2.0 8.0 0.00 0.02 0.02 80 1014.7
20260906012832 82 148 4.0 8.0 0.00 0.02 0.02 80 1014.6
20260906012330 82 165 2.0 7.0 0.00 0.02 0.02 80 1014.6
20260906011903 82 130 3.0 7.0 0.00 0.02 0.02 81 1014.7
20260906011323 82 134 1.0 3.0 0.00 0.02 0.02 81 1014.5
20260906010827 82 152 0.0 2.0 0.00 0.02 0.02 81 1014.5
20260906010332 83 103 0.0 0.0 0.00 0.02 0.02 81 1014.5
20260906005829 83 103 0.0 0.0 0.00 0.02 0.02 81 1014.4
20260906005333 83 103 0.0 0.0 0.00 0.02 0.02 81 1014.4
20260906004836 83 103 0.0 2.0 0.00 0.02 0.02 80 1014.4
20260906004340 82 103 1.0 2.0 0.00 0.02 0.02 80 1014.3
20260906003824 83 103 0.0 0.0 0.00 0.02 0.02 81 1014.3
20260906003329 83 103 0.0 0.0 0.00 0.02 0.02 80 1014.3
20260906002830 83 103 0.0 1.0 0.00 0.02 0.02 80 1014.2
20260906002335 83 103 0.0 2.0 0.00 0.02 0.02 80 1014.2
20260906001841 83 59 0.0 1.0 0.00 0.02 0.02 81 1014.1
20260906001344 83 59 0.0 0.0 0.00 0.02 0.02 80 1014.0
20260906000848 83 59 0.0 0.0 0.00 0.02 0.02 79 1014.1
20260906000333 83 59 0.0 0.0 0.00 0.02 0.02 79 1014.1
20260905235833 83 59 0.0 1.0 0.00 0.02 0.02 79 1014.0
20260905235332 83 59 0.0 1.0 0.00 0.02 0.02 80 1014.0
20260905234836 83 59 0.0 2.0 0.00 0.02 0.02 79 1014.1
20260905234408 84 53 1.0 2.0 0.00 0.02 0.02 79 1014.1
20260905233852 84 39 0.0 0.0 0.00 0.02 0.02 79 1014.1
20260905233336 84 39 0.0 0.0 0.00 0.02 0.02 79 1014.1
20260905232837 84 39 0.0 1.0 0.00 0.02 0.02 79 1014.2
20260905232340 84 39 0.0 1.0 0.00 0.02 0.02 79 1014.1
20260905231824 85 46 0.0 1.0 0.00 0.02 0.02 78 1014.2
20260905231329 85 46 0.0 1.0 0.00 0.02 0.02 78 1014.1
20260905230834 85 46 0.0 1.0 0.00 0.02 0.02 79 1014.1
20260905230340 85 46 0.0 2.0 0.00 0.02 0.02 78 1014.2
20260905225841 85 55 0.0 2.0 0.00 0.03 0.02 78 1014.3
20260905225325 85 53 1.0 2.0 0.00 0.03 0.02 78 1014.3
20260905224828 85 48 0.0 2.0 0.00 0.03 0.02 78 1014.3
20260905224329 85 48 0.0 0.0 0.00 0.03 0.02 77 1014.2
20260905223831 85 48 0.0 0.0 0.00 0.03 0.02 78 1014.1
20260905223331 85 48 0.0 1.0 0.00 0.03 0.02 78 1014.0
20260905222829 86 48 0.0 1.0 0.00 0.03 0.02 77 1014.0
20260905222329 86 48 0.0 1.0 0.00 0.03 0.02 78 1014.0
20260905221829 86 48 0.0 1.0 0.00 0.03 0.02 77 1014.0
20260905221329 86 55 0.0 1.0 0.00 0.03 0.02 76 1014.1
20260905220829 87 55 0.0 2.0 0.00 0.03 0.02 76 1013.9
20260905220340 87 55 0.0 2.0 0.00 0.03 0.02 76 1013.8
20260905215838 87 62 0.0 2.0 0.00 0.03 0.02 77 1013.8
20260905215341 87 11 0.0 1.0 0.00 0.03 0.02 76 1013.8
20260905214843 86 11 0.0 2.0 0.00 0.03 0.02 76 1014.0
20260905214341 86 11 1.0 2.0 0.00 0.03 0.02 76 1014.2
20260905213846 86 39 1.0 2.0 0.00 0.03 0.02 76 1014.1
20260905213329 86 33 0.0 2.0 0.00 0.03 0.02 75 1014.1
20260905212830 86 88 0.0 2.0 0.00 0.03 0.02 76 1013.9
20260905212401 87 92 0.0 3.0 0.00 0.03 0.02 76 1014.0
20260905211842 87 86 1.0 3.0 0.00 0.03 0.02 75 1014.2
20260905211346 87 348 0.0 2.0 0.00 0.03 0.02 76 1014.3
20260905210849 87 348 0.0 2.0 0.00 0.03 0.02 75 1014.3
20260905210354 88 90 0.0 2.0 0.00 0.03 0.02 74 1014.5
20260905205835 88 19 1.0 2.0 0.00 0.55 0.02 74 1014.4
20260905205340 89 75 1.0 3.0 0.00 0.55 0.02 73 1014.3
20260905204824 89 26 1.0 3.0 0.00 0.55 0.02 72 1014.3
20260905204327 90 13 1.0 6.0 0.00 0.55 0.02 71 1014.3
20260905203827 91 334 1.0 6.0 0.00 0.55 0.02 70 1014.4
20260905203332 92 46 1.0 7.0 0.00 0.55 0.02 71 1014.5
20260905202833 91 5 1.0 7.0 0.00 0.55 0.02 68 1014.5
20260905202341 92 29 1.0 7.0 0.00 0.55 0.02 66 1014.5
20260905201843 93 288 1.0 7.0 0.00 0.55 0.02 63 1014.5
20260905201343 93 313 3.0 7.0 0.00 0.55 0.02 67 1014.4